Temperature
18 16 17 17 17 18 18 17 17 17 17 17 16 16 16 16 15 15 15 16 16 16 17 16 16 16 16 16 16 16 16 15 15 15 15 15 15 15 15 14 14 14 14 14
17 17 18 18 18 18 18 17 17 17 17 17 16 16 15 15 15 15 15 16 16 16 16 16 16 16 16 16 16 16 16 15 15 15 15 15 15 14 14 14 14 14 14 14
18 18 19 19 18 18 18 17 17 17 17 16 16 16 15 15 15 15 15 16 16 16 16 16 16 16 16 16 15 15 15 15 15 15 15 15 14 14 14 14 14 14 13 13
18 18 19 19 18 18 18 18 18 17 16 15 16 15 15 14 14 14 14 15 16 16 16 16 16 16 16 15 15 15 15 15 15 15 14 14 14 14 14 14 14 13 13 13
18 18 18 18 19 18 18 18 17 17 16 15 15 15 14 14 14 14 14 15 15 16 16 16 16 16 16 15 15 15 15 15 15 14 14 14 14 14 14 13 13 13 13 13
18 18 18 19 19 18 17 16 15 14 14 15 15 14 14 13 14 14 14 15 15 15 15 16 16 16 15 15 15 15 15 15 14 14 14 14 14 14 13 13 13 13 13 13
17 18 18 19 18 17 17 15 15 15 14 14 14 14 14 14 14 14 14 14 15 15 15 15 15 15 15 15 15 14 14 14 14 14 14 13 13 13 13 13 13 13 12 12
16 16 18 18 18 17 16 16 15 15 14 14 14 14 14 15 15 15 15 15 15 15 15 15 15 15 15 15 15 14 14 14 14 14 13 13 13 13 13 13 12 12 12 12
15 16 17 18 18 17 16 15 15 14 14 14 14 14 14 14 14 14 14 14 14 15 15 15 15 15 15 14 14 14 14 14 14 13 13 13 13 13 12 12 12 12 12 11
15 16 16 17 18 17 16 14 13 14 14 14 14 14 14 14 14 13 13 13 14 14 15 14 14 14 14 14 14 14 14 14 13 13 13 13 12 12 12 12 12 12 11 11
16 15 15 16 17 17 16 15 13 12 13 13 14 14 14 14 14 13 13 13 14 14 14 14 14 14 14 14 14 13 13 13 13 13 12 12 12 12 12 11 11 11 11 11
14 13 14 15 16 16 16 15 13 14 13 12 12 13 14 13 13 13 13 14 14 14 14 14 14 14 14 13 13 13 13 13 13 12 12 12 11 11 11 11 11 11 11 10
14 13 13 14 15 15 15 15 14 12 12 11 12 14 14 13 13 13 13 14 14 14 13 13 13 13 13 13 13 13 13 13 12 12 12 11 11 11 11 11 10 10 10 10
14 12 13 14 14 15 15 15 14 13 12 12 12 13 13 13 12 12 13 13 13 13 13 13 13 13 13 13 12 12 12 12 12 11 11 11 11 11 10 10 10 10 10 10
13 13 13 13 14 14 14 14 14 13 13 13 13 13 13 13 12 12 13 13 12 12 12 12 12 12 13 12 12 12 12 12 11 11 11 11 11 10 10 10 10 10 10 9
11 13 13 13 14 14 13 14 14 13 13 13 13 13 12 12 12 12 12 12 12 12 12 12 12 12 12 12 12 12 12 11 11 11 11 11 10 10 10 10 10 9 9 9
11 12 12 12 12 13 13 13 13 13 13 13 13 13 12 11 11 11 11 11 12 12 12 12 12 12 12 12 12 11 11 11 11 11 10 10 10 10 10 10 9 9 9 9
11 11 10 11 12 13 13 13 13 13 12 12 12 12 11 11 11 12 12 12 12 12 12 11 12 12 11 11 11 11 11 11 11 10 10 10 10 10 10 9 9 9 9 9
10 11 10 10 11 12 12 13 12 13 12 12 11 11 11 11 11 11 12 12 12 12 12 11 11 11 11 11 11 10 10 10 10 10 10 10 10 9 9 9 9 9 8 8
9 10 10 10 11 12 12 13 13 13 12 12 11 11 10 10 9 10 12 12 11 11 11 11 11 11 10 10 10 10 10 10 10 10 10 9 9 9 9 9 9 8 8 8
10 9 9 10 10 11 11 12 12 12 12 12 12 11 11 10 11 12 11 11 11 11 11 11 10 10 10 10 10 10 10 10 10 9 9 9 9 9 9 8 8 8 8 8
10 9 9 9 10 11 11 11 11 11 12 12 12 12 11 11 12 11 11 11 11 10 10 10 10 10 10 10 10 10 9 9 9 9 9 9 8 8 8 8 8 7 7 7
9 9 9 9 10 10 11 11 12 12 12 12 12 12 11 11 11 11 10 10 10 10 10 10 9 9 9 9 9 9 9 9 8 8 8 8 8 8 8 7 7 7 7 7
8 8 8 8 9 10 11 11 11 11 11 12 12 11 11 11 11 10 10 10 10 10 9 9 9 9 9 9 9 9 8 8 8 8 8 8 8 7 7 7 7 7 6 6
8 7 7 8 8 9 10 11 11 11 11 11 11 11 11 10 10 10 10 9 9 9 9 9 9 8 8 8 8 8 8 8 8 8 7 7 7 7 7 7 6 6 6 6
7 7 7 8 9 8 10 11 11 10 10 10 10 10 10 10 10 10 9 9 9 9 9 8 8 8 8 8 8 8 8 7 7 7 7 7 7 6 6 6 6 6 6 5
Wind_Speed
4 5 1 4 5 4 4 3 2 3 2 2 2 3 3 2 3 3 3 3 4 4 2 1 2 3 4 4 4 5 5 4 4 2 2 2 1 1 2 3 5 5 6 6
5 1 4 3 3 2 3 2 1 2 0 2 1 3 3 2 4 5 6 5 5 3 1 2 3 3 3 3 3 3 4 4 3 2 2 2 2 1 1 2 4 5 5 5
3 4 1 3 2 2 2 4 3 2 2 3 2 4 3 2 1 1 2 3 4 5 5 3 3 3 3 3 4 4 4 4 3 3 3 3 3 3 2 2 2 4 5 5
2 2 2 2 2 4 3 3 4 3 2 1 1 2 5 3 2 2 2 3 4 4 4 4 4 4 4 4 3 4 4 3 3 4 4 4 3 2 1 1 1 2 5 5
3 1 2 3 4 5 3 1 2 2 3 1 1 1 6 2 4 6 5 4 5 5 5 5 6 6 5 4 3 4 4 4 3 4 5 5 3 2 2 2 2 2 3 4
3 2 3 3 1 3 4 5 5 5 4 0 3 3 6 4 5 5 5 5 5 4 4 4 4 4 3 3 3 3 4 3 3 4 4 5 5 4 4 3 2 2 2 2
5 4 2 1 2 2 4 5 3 4 3 4 2 3 6 6 5 6 5 5 5 4 4 4 5 5 5 4 4 3 4 3 3 4 4 4 4 5 4 3 2 2 1 1
1 5 3 0 3 3 3 7 6 4 4 4 1 4 6 5 4 3 3 3 3 3 3 4 5 6 6 6 5 4 4 4 3 4 3 3 3 3 3 3 3 2 2 1
3 5 4 2 1 6 4 3 5 5 2 1 4 5 6 2 2 1 1 2 3 3 3 3 4 5 5 6 5 5 5 4 4 4 4 3 3 3 3 3 3 2 2 1
5 3 4 4 3 3 4 7 5 4 3 3 5 4 4 5 4 2 1 2 3 3 3 2 3 3 4 4 4 4 4 4 4 4 4 3 3 3 3 3 3 2 2 2
2 2 4 3 1 2 3 4 4 3 3 4 3 6 4 6 5 5 4 3 3 3 3 3 2 2 3 3 3 3 3 3 3 3 3 3 3 3 3 3 3 3 2 2
2 3 2 5 4 2 3 5 7 4 3 4 3 6 4 3 3 3 4 3 2 2 2 2 2 2 2 3 3 3 3 3 3 4 4 3 3 3 3 2 2 2 2 2
2 3 2 5 4 2 1 2 4 5 4 5 4 6 2 2 1 1 2 2 2 2 2 2 2 2 2 2 2 3 3 3 3 3 3 3 3 3 3 2 2 2 2 2
3 3 6 7 7 4 3 3 4 5 4 5 8 8 7 5 4 3 2 2 2 2 3 3 3 3 2 2 2 2 2 3 3 3 3 3 3 3 3 3 3 2 2 3
3 3 5 6 6 4 5 6 5 7 7 8 7 8 8 6 5 4 3 1 1 1 2 3 3 3 2 2 2 2 2 2 4 4 3 3 3 3 3 3 3 2 2 2
2 2 2 4 3 3 4 7 7 6 5 6 5 7 5 3 1 1 1 2 2 2 3 3 3 3 3 3 3 2 2 2 3 4 3 2 2 3 3 3 3 3 2 1
1 3 1 3 4 3 5 5 5 4 4 5 7 7 2 1 2 3 3 3 3 3 2 3 4 4 4 4 4 4 4 3 3 3 3 3 3 3 3 3 3 3 3 2
4 3 2 1 2 4 5 1 2 3 4 4 4 3 3 4 2 2 3 4 3 3 2 3 3 3 3 3 2 2 3 3 4 4 4 3 3 3 2 3 3 3 2 3
4 5 3 2 2 5 5 2 1 3 4 3 4 3 2 1 2 3 2 2 3 3 3 3 3 3 2 3 3 3 2 3 3 4 4 4 4 4 3 3 3 3 3 2
3 3 4 3 3 5 5 4 2 1 4 2 3 3 2 2 0 4 3 1 1 1 1 1 1 2 2 2 3 3 3 3 3 3 3 3 4 4 4 4 3 2 2 2
1 2 3 4 4 6 5 4 1 2 5 3 2 3 4 4 5 4 2 1 1 1 1 1 2 2 3 3 4 4 3 3 3 3 3 2 3 4 4 3 2 2 2 2
4 3 4 3 3 6 4 1 2 4 3 1 2 3 4 4 2 1 1 1 1 0 0 1 1 1 1 3 4 3 3 3 2 2 2 2 2 3 2 3 2 2 2 2
3 4 4 5 5 3 1 2 3 1 1 2 2 3 3 2 2 2 1 1 1 1 1 1 1 1 1 2 3 4 3 3 3 2 2 2 2 1 2 3 3 2 2 2
2 0 1 2 4 4 3 2 3 2 2 2 2 1 2 3 3 2 2 1 1 1 1 1 2 2 1 2 2 3 3 3 3 3 2 2 2 1 1 1 2 2 2 2
3 2 1 3 4 5 4 3 3 3 2 3 2 1 2 2 2 2 2 2 1 0 0 1 2 3 3 2 2 2 3 4 3 3 2 2 2 2 2 1 1 2 3 3
3 4 4 5 5 4 5 5 3 2 3 3 2 2 2 2 2 2 2 1 1 1 1 1 1 2 2 2 2 2 3 4 4 3 2 2 2 2 1 1 0 1 1 1
Wind_Direction
46 76 168 216 193 184 171 175 227 256 233 139 213 256 270 226 197 212 222 223 219 219 228 130 119 120 117 116 129 142 140 137 130 119 116 105 94 54 49 54 62 71 75 76
44 298 239 190 161 142 153 160 224 306 48 152 224 277 284 218 214 211 209 213 214 209 179 138 122 120 130 143 142 145 151 151 145 141 143 145 139 107 96 60 56 62 73 78
177 251 185 135 131 148 185 183 204 203 31 40 69 323 308 310 258 220 212 208 201 194 193 184 160 158 146 155 166 166 166 154 145 135 113 92 74 64 53 43 41 40 63 73
240 264 145 149 189 164 241 235 187 155 116 304 89 286 288 275 291 276 251 211 204 201 190 182 174 171 177 182 171 160 152 142 140 137 131 130 129 129 147 139 87 56 56 62
264 220 170 209 222 176 210 92 116 129 141 66 30 192 284 299 263 262 251 228 215 204 192 188 183 181 178 166 150 151 138 133 131 132 136 134 120 124 103 94 88 70 52 54
258 247 197 212 183 140 128 74 61 53 78 292 245 186 277 252 241 252 239 232 226 210 193 190 180 161 157 144 137 139 140 138 139 136 131 136 133 124 113 103 103 78 57 45
328 321 313 141 87 43 92 93 38 3 9 256 239 193 250 259 250 228 223 220 213 199 186 182 174 166 161 156 155 149 150 147 148 145 143 149 149 145 146 146 144 123 89 54
308 296 290 252 167 173 159 143 158 199 226 275 297 231 251 268 274 243 208 191 179 182 183 186 186 179 174 173 168 160 161 162 162 161 160 153 149 151 153 155 153 156 158 152
184 264 298 300 195 144 140 162 163 140 161 265 276 283 298 304 345 3 125 147 175 190 189 192 188 179 177 180 180 176 172 173 176 172 161 156 160 160 159 159 151 155 148 135
165 249 291 304 65 42 134 141 104 123 160 255 286 274 261 270 271 277 248 204 200 191 186 188 180 177 177 182 178 175 174 182 181 172 173 167 167 170 164 153 155 152 148 132
144 186 306 358 174 193 101 110 114 120 155 171 255 269 233 230 230 227 230 222 206 200 194 189 183 170 159 151 153 155 160 165 167 168 166 154 160 158 151 158 172 170 156 147
124 131 255 266 268 228 175 170 152 160 215 186 203 265 285 245 236 217 221 220 208 202 192 176 160 138 139 159 157 162 169 172 175 169 161 161 158 151 150 170 178 164 160 161
125 111 9 340 340 0 76 167 159 141 141 174 194 257 302 2 334 242 217 217 204 174 154 146 143 151 162 175 176 179 185 184 172 162 160 162 160 160 170 180 174 165 162 169
125 149 185 214 233 231 259 238 175 154 179 211 221 242 278 291 285 277 259 235 199 177 169 162 169 181 184 184 186 186 197 183 164 157 162 176 183 181 182 176 170 183 180 175
117 200 229 243 247 225 243 249 214 203 205 209 231 231 248 254 247 251 231 204 152 167 179 188 195 194 187 178 191 191 190 181 166 160 172 195 191 176 167 167 173 183 190 186
92 191 258 288 273 243 258 262 236 226 222 228 244 256 250 255 203 216 212 187 200 220 218 206 197 197 199 197 202 199 193 187 163 167 184 182 173 170 169 172 169 169 180 181
131 142 125 276 297 321 273 255 223 217 218 198 225 247 242 228 221 220 214 211 219 228 232 220 211 209 210 208 203 200 197 177 167 174 182 172 171 179 187 179 170 178 185 178
152 138 152 273 355 249 249 277 190 211 238 224 231 245 210 213 236 251 209 201 226 237 237 234 229 219 213 203 196 193 180 171 174 177 184 181 176 183 188 181 187 193 189 191
167 152 142 152 250 277 295 287 191 212 269 236 217 228 207 136 35 326 265 218 221 225 226 224 223 212 191 185 183 171 170 171 175 184 190 190 183 183 185 192 196 191 181 188
93 120 138 161 208 243 262 294 300 175 274 275 202 212 197 119 278 267 263 250 251 276 256 228 203 167 169 192 169 151 164 168 190 201 203 195 188 187 193 197 191 186 184 193
91 99 164 195 224 259 277 305 32 180 259 283 215 211 190 205 229 244 229 236 241 230 224 160 146 166 189 185 158 158 172 192 207 196 183 178 188 194 191 185 178 170 171 165
182 175 192 176 208 256 307 74 171 239 288 294 242 223 205 224 246 237 207 220 233 202 130 143 147 177 188 170 161 165 191 201 183 165 162 176 179 188 180 166 164 161 160 160
196 198 194 195 215 257 268 227 282 307 296 291 269 257 210 221 242 233 223 221 224 196 182 176 164 168 185 176 168 175 197 181 160 147 159 174 161 155 160 166 166 160 172 184
288 27 152 256 278 290 291 317 321 312 285 294 293 263 211 223 229 223 215 225 221 186 169 157 145 164 204 204 186 185 178 169 158 156 163 156 142 136 129 144 166 175 189 197
236 178 211 254 285 314 305 298 298 310 322 332 337 313 230 205 233 224 213 221 215 195 184 179 183 190 202 194 181 164 154 149 150 156 160 157 156 159 153 156 187 199 209 203
205 192 198 240 241 225 265 272 281 287 291 283 291 306 294 230 222 213 214 217 191 178 179 179 179 179 183 176 174 166 159 157 154 158 168 175 166 164 159 158 335 305 252 242
Height
1495 1501 1506 1504 1503 1505 1507 1511 1514 1511 1507 1510 1512 1512 1510 1509 1510 1510 1511 1512 1513 1514 1516 1518 1519 1520 1521 1523 1524 1525 1526 1528 1528 1529 1529 1530 1531 1531 1532 1532 1532 1532 1532 1531
1501 1504 1500 1499 1501 1503 1507 1511 1513 1511 1507 1510 1513 1513 1510 1509 1509 1509 1509 1510 1512 1514 1515 1516 1518 1519 1520 1522 1523 1524 1526 1527 1528 1528 1529 1530 1531 1531 1532 1532 1532 1532 1532 1532
1502 1500 1497 1499 1502 1505 1507 1510 1511 1512 1510 1511 1513 1516 1512 1509 1508 1508 1509 1509 1510 1512 1513 1515 1516 1517 1519 1520 1522 1523 1525 1526 1527 1528 1529 1530 1530 1531 1531 1531 1532 1532 1532 1532
1499 1497 1497 1499 1501 1503 1509 1503 1505 1508 1516 1522 1518 1529 1516 1511 1509 1507 1507 1508 1508 1510 1511 1513 1514 1515 1517 1519 1521 1522 1524 1525 1526 1527 1528 1528 1529 1529 1530 1530 1531 1531 1531 1531
1500 1496 1497 1500 1499 1499 1503 1501 1504 1508 1514 1522 1521 1527 1521 1512 1510 1507 1505 1505 1506 1508 1509 1510 1512 1514 1516 1518 1519 1521 1522 1524 1525 1526 1527 1527 1528 1529 1529 1530 1530 1530 1530 1530
1497 1494 1495 1496 1495 1497 1499 1504 1509 1515 1520 1530 1524 1528 1524 1514 1508 1504 1503 1503 1503 1505 1507 1508 1510 1512 1514 1516 1518 1519 1521 1522 1524 1525 1525 1526 1527 1527 1528 1528 1529 1529 1529 1529
1501 1496 1494 1493 1497 1499 1502 1514 1527 1529 1535 1532 1521 1524 1520 1505 1501 1500 1500 1500 1501 1503 1504 1506 1508 1510 1512 1514 1516 1518 1519 1521 1522 1523 1524 1525 1525 1526 1527 1527 1527 1527 1527 1528
1510 1509 1496 1494 1496 1501 1503 1510 1527 1533 1536 1531 1522 1523 1511 1501 1498 1497 1498 1498 1499 1501 1502 1504 1506 1507 1509 1512 1514 1515 1517 1518 1520 1521 1522 1523 1524 1524 1525 1526 1526 1526 1526 1527
1510 1509 1495 1493 1492 1496 1503 1510 1511 1523 1527 1531 1526 1517 1506 1499 1498 1497 1497 1498 1498 1499 1500 1502 1504 1505 1507 1509 1511 1513 1515 1516 1518 1519 1520 1521 1522 1523 1523 1524 1524 1525 1525 1525
1502 1507 1498 1494 1493 1495 1498 1505 1516 1523 1530 1533 1526 1520 1514 1502 1500 1498 1497 1497 1497 1498 1499 1501 1502 1504 1505 1508 1510 1511 1513 1514 1515 1516 1518 1518 1519 1520 1521 1522 1522 1523 1523 1523
1499 1507 1504 1499 1498 1500 1502 1507 1514 1522 1524 1531 1531 1521 1501 1498 1496 1496 1496 1496 1496 1497 1498 1499 1501 1502 1504 1506 1508 1509 1511 1512 1513 1514 1515 1516 1517 1518 1519 1519 1520 1520 1520 1521
1501 1508 1511 1504 1496 1495 1497 1501 1509 1519 1523 1526 1527 1520 1496 1495 1494 1494 1494 1494 1495 1496 1497 1498 1500 1501 1502 1504 1505 1507 1508 1509 1510 1512 1513 1514 1515 1516 1516 1517 1517 1518 1518 1518
1501 1508 1515 1511 1507 1500 1499 1500 1503 1510 1519 1526 1526 1515 1495 1494 1493 1493 1493 1493 1494 1495 1496 1497 1498 1499 1500 1502 1503 1504 1506 1507 1508 1509 1510 1511 1512 1513 1513 1514 1514 1515 1515 1516
1498 1506 1511 1513 1507 1502 1501 1500 1502 1507 1516 1518 1514 1506 1498 1495 1494 1493 1492 1492 1493 1493 1494 1495 1496 1497 1498 1500 1501 1502 1503 1504 1505 1506 1508 1508 1509 1510 1510 1511 1512 1512 1513 1513
1497 1504 1503 1501 1498 1498 1499 1498 1498 1501 1502 1506 1502 1500 1495 1493 1492 1491 1491 1491 1492 1492 1492 1493 1494 1495 1496 1497 1499 1500 1501 1502 1503 1504 1505 1506 1507 1507 1508 1509 1509 1510 1511 1511
1498 1502 1501 1501 1496 1496 1498 1495 1494 1496 1496 1497 1496 1496 1490 1490 1489 1490 1489 1489 1490 1490 1490 1490 1491 1492 1493 1495 1496 1497 1498 1499 1500 1501 1502 1503 1504 1505 1505 1506 1506 1507 1508 1508
1501 1503 1506 1507 1500 1497 1499 1493 1492 1493 1492 1493 1494 1491 1488 1489 1488 1487 1487 1488 1488 1488 1489 1489 1489 1490 1491 1492 1493 1494 1495 1497 1498 1498 1499 1500 1501 1502 1502 1503 1503 1504 1504 1505
1499 1503 1507 1508 1504 1505 1496 1488 1488 1489 1488 1488 1487 1486 1486 1486 1486 1485 1486 1486 1486 1486 1486 1487 1487 1488 1489 1490 1491 1492 1493 1493 1494 1495 1496 1497 1498 1498 1499 1500 1500 1501 1501 1502
1494 1499 1507 1510 1509 1503 1493 1488 1488 1489 1488 1485 1485 1485 1485 1485 1485 1484 1484 1484 1484 1484 1484 1485 1485 1485 1486 1487 1488 1489 1490 1491 1491 1492 1493 1494 1495 1495 1496 1496 1497 1498 1498 1498
1494 1497 1504 1508 1506 1505 1493 1486 1484 1487 1488 1483 1483 1483 1484 1484 1487 1484 1482 1482 1482 1482 1482 1482 1482 1483 1483 1484 1485 1486 1487 1487 1488 1489 1490 1491 1491 1492 1492 1493 1494 1494 1495 1495
1498 1501 1504 1506 1505 1499 1489 1485 1485 1493 1490 1482 1481 1481 1482 1482 1482 1481 1480 1479 1479 1479 1479 1479 1479 1480 1480 1481 1482 1483 1484 1485 1486 1487 1487 1487 1488 1489 1489 1490 1490 1491 1491 1492
1498 1501 1504 1506 1505 1500 1486 1486 1488 1487 1482 1480 1480 1479 1479 1479 1478 1478 1478 1477 1477 1476 1476 1476 1477 1477 1478 1478 1479 1480 1481 1482 1483 1484 1484 1485 1485 1485 1486 1487 1487 1488 1488 1488
1495 1495 1495 1496 1495 1488 1485 1485 1484 1482 1481 1480 1479 1478 1478 1477 1477 1476 1476 1475 1475 1474 1474 1474 1474 1475 1475 1476 1477 1477 1478 1479 1480 1481 1481 1482 1482 1483 1483 1483 1484 1484 1485 1485
1493 1491 1492 1492 1488 1485 1484 1483 1482 1482 1480 1479 1478 1477 1476 1475 1475 1474 1474 1474 1473 1472 1472 1472 1472 1472 1473 1473 1474 1475 1476 1477 1478 1478 1478 1479 1479 1480 1480 1481 1481 1481 1482 1482
1490 1491 1491 1490 1486 1484 1482 1482 1481 1480 1479 1478 1477 1476 1475 1474 1473 1473 1472 1472 1472 1471 1471 1471 1470 1470 1470 1471 1472 1473 1473 1474 1475 1475 1476 1476 1477 1477 1478 1478 1479 1479 1479 1480
1487 1488 1489 1487 1483 1483 1481 1480 1480 1479 1477 1476 1475 1474 1473 1473 1472 1472 1471 1471 1470 1470 1469 1469 1468 1468 1469 1469 1470 1470 1471 1472 1472 1473 1474 1474 1474 1475 1475 1475 1476 1476 1477 1477